{"data":{"norad_id":59426,"epoch":"2026-09-21T11:50:02.570784Z","epoch_age_seconds":79825,"freshness":"FRESH","line1":"1 59426U 24065F   26264.49308531  .00001243  00000+0  15118-4 0  9995","line2":"2 59426  53.1602 208.8485 0001102 101.1024 259.0118 15.69706391142272","mean_motion":15.69706391,"eccentricity":0.0001102,"inclination_deg":53.1602,"raan_deg":208.8485,"arg_perigee_deg":101.1024,"mean_anomaly_deg":259.0118,"bstar":1.5118e-5,"rev_number":14227,"period_min":91.736901133634,"perigee_km":358.99456429272,"apogee_km":360.47959173951,"semimajor_km":6737.8740780161,"source":"CELESTRAK","updated_at":"2026-09-22T09:00:48.939452Z"}}